Regional Weather Roundup
Issued by NWS Midland/Odessa, TX

Home | Current Version | Previous Version | Text Only | Print | Product List | Glossary On
Versions: 1 2 3 4 5 6 7 8 9 10 11 12 13 14 15 16 17 18 19 20 21 22 23 24 25 26 27 28 29 30 31 32 33 34 35 36 37 38 39 40 41 42 43 44 45 46 47 48 49 50
000
ASUS44 KMAF 221301
RWRMAF
MIDLAND AREA WEATHER ROUNDUP
NATIONAL WEATHER SERVICE MIDLAND TX
700 AM CST MON DEC 22 2014

...IN SOUTHWEST TEXAS AND SOUTHEAST NEW MEXICO...

CITY           SKY/WX    TMP DP  RH WIND       PRES   REMARKS
ALPINE         CLOUDY    54  27  35 W22G28    29.94S
ANDREWS        FAIR      53  29  40 W14G20    29.73R
ARTESIA        CLOUDY    54  30  40 W15G21    29.77F
BIG SPRING     CLOUDY    52  30  42 S7        29.71R
CARLSBAD       CLOUDY    60  29  30 W23       29.76R
DRYDEN           N/A     40  40 100 CALM      29.77R
FORT STOCKTON  CLOUDY    57  29  34 SW16      29.77R
GUAD PASS      NOT AVBL
HOBBS          CLEAR     52  28  40 W14       29.75S
MARFA          CLOUDY    45  27  49 W14       29.96R WCI  38
MIDLAND AIRPK  CLOUDY    55  29  37 W15       29.71R
MIDLAND INTL   CLOUDY    52  30  43 W14       29.72R
ODESSA         CLOUDY    52  28  39 W13       29.74R
PECOS          CLOUDY    59  31  34 W21       29.76R
PRESIDIO       FAIR      49  28  43 SE7       29.88S
SEMINOLE       CLOUDY    52  30  42 W16       29.73R
SNYDER         MOCLDY    46  31  56 W9        29.66R
WINK           CLOUDY    56  28  34 W12       29.75R
$$
...OTHER STATIONS IN TEXAS...

CITY           SKY/WX    TMP DP  RH WIND       PRES   REMARKS
ABILENE        PTCLDY    49  38  65 SW10      29.62R
AMARILLO       MOCLDY    40  33  76 NW15      29.70R WCI  32
AUSTIN         CLOUDY    58  54  86 SW13G20   29.73R
BROWNSVILLE    CLOUDY    62  61  96 SW8       29.80R FOG
CORPUS CHRISTI MOCLDY    60  59  96 CALM      29.78F
DALLAS FTW     PTCLDY    50  47  89 S10       29.58F
DEL RIO        CLOUDY    53  53 100 CALM      29.78R FOG
EL PASO        MOCLDY    54  31  41 W8        29.90R
HOUSTON INT    MOCLDY    58  57  97 VRB3      29.75F FOG
LUBBOCK        PTCLDY    46  31  55 NW15      29.68R WCI  40
SAN ANGELO     PTCLDY    49  42  77 SW13      29.70R
SAN ANTONIO    CLOUDY    58  54  86 SW7       29.77R
WACO           MOCLDY    56  52  86 S17       29.64S
WICHITA FALLS  NOT AVBL
$$
...OTHER LOCATIONS IN NEW MEXICO...

CITY           SKY/WX    TMP DP  RH WIND       PRES   REMARKS
ALAMAGORDO     MOCLDY    36  28  75 N7        29.91S WCI  30
ALBUQUERQUE    PTCLDY    40  31  70 SW8       29.91S WCI  34
CANNON AFB     CLEAR     43  30  61 N10       29.73R WCI  37
CLOVIS         CLEAR     36  25  64 N6        29.74R WCI  31
HOLLOMAN AFB   MOCLDY    32  28  82 NE7       29.90R WCI  26
ROSWELL        CLOUDY    62  28  27 NW16      29.75R
RUIDOSO        PTCLDY    46  27  46 NW21G40   29.88F WCI  39
SANTA FE       PTCLDY    38  28  67 NE8       29.86R WCI  32
TRUTH OR CONSE PTCLDY    51  32  48 NW22      29.92R
TUCUMCARI      PTCLDY    43  33  68 NE16      29.76R WCI  35
$$


USA.gov is the U.S. government's official web portal to all federal, state and local government web resources and services.